Regional Weather Roundup
Issued by NWS

Home | Current Version | Previous Version | Graphics & Text | Print | Product List | Glossary On
Versions: 1 2 3 4 5 6 7 8 9 10 11 12 13 14 15 16 17 18 19 20 21 22 23 24 25 26 27 28 29 30 31 32 33 34 35 36 37 38 39 40 41 42 43 44 45 46 47 48 49 50
394
ASUS45 KTFX 271410
RWRMT
MONTANA REGIONAL WEATHER ROUNDUP
NATIONAL WEATHER SERVICE GREAT FALLS MT
800 AM MDT WED JUL 27 2016

NOTE: "FAIR" INDICATES FEW OR NO CLOUDS BELOW 12000 FEET WITH NO
SIGNIFICANT WEATHER AND/OR OBSTRUCTIONS TO VISIBILITY.

MTZ001>007-043-271500-
WEST OF THE DIVIDE

CITY           SKY/WX    TMP DP  RH WIND       PRES   REMARKS
KALISPELL      MOSUNNY   65  55  70 N15       30.13R
MISSOULA       SUNNY     62  52  69 CALM      30.15S
BUTTE          SUNNY     50  40  68 CALM      30.27R
MULLAN PASS    SUNNY     62  44  51 SE8       30.25S
ANACONDA         N/A     59  43  55 SE3       30.23R
DEER LODGE       N/A     57  48  72 CALM      30.25R
EUREKA           N/A     57  54  88 CALM      30.16R
HAMILTON         N/A     61  46  59 S8        30.15S
LIBBY            N/A     61  50  67 CALM      30.14S
PLAINS           N/A     58  49  72 CALM      30.11S
THOMPSON FALLS   N/A     57  56  97 CALM      30.15R
$$

MTZ008-052>055-271500-
SOUTHWEST MONTANA

CITY           SKY/WX    TMP DP  RH WIND       PRES   REMARKS
BOZEMAN        SUNNY     59  44  57 S3        30.21R
DILLON         SUNNY     53  43  68 S8        30.24R
W YELLOWSTONE  SUNNY     48  37  66 CALM      30.34S
ENNIS          SUNNY     59  41  51 CALM      30.29S
THREE FORKS      N/A     56  56 100 CALM      30.17S
TWIN BRIDGES     N/A     51  43  74 SE3       30.20R
$$

MTZ009-010-012-014-046-048-049-054-271500-
EAST SLOPES AND CENTRAL MONTANA

CITY           SKY/WX    TMP DP  RH WIND       PRES   REMARKS
CUT BANK       SUNNY     58  53  84 CALM      30.19R
GREAT FALLS    SUNNY     61  55  81 CALM      30.18S
MALMSTROM AFB  SUNNY     60  56  87 SW7       30.17S
HELENA         SUNNY     60  52  74 CALM      30.18S
CHOTEAU          N/A     57  54  88 W5        30.22R
CONRAD           N/A     57  57 100 E1        30.19R
$$

MTZ011-013-016-021-045-047-050-051-271500-
NORTH CENTRAL MONTANA

CITY           SKY/WX    TMP DP  RH WIND       PRES   REMARKS
HAVRE          LGT RAIN  62  60  93 S3        30.14R
LEWISTOWN      SUNNY     59  54  83 SW3       30.19S
N BAR RANCH      N/A     61  54  77 CALM      30.21S
CHINOOK          N/A     63  63 100 CALM      30.14R
$$

MTZ017>020-022>027-061-062-271500-
NORTHEAST MONTANA

CITY           SKY/WX    TMP DP  RH WIND       PRES   REMARKS
GLASGOW        LGT RAIN  62  61  96 VRB6      30.12R
JORDAN           N/A     65  62  90 N9        30.12S
SIDNEY         LGT RAIN  64  60  87 CALM      30.12R
WOLF POINT     LGT RAIN  65  62  90 N7        30.14R
PLENTYWOOD       N/A     64  55  72 E3        30.14R
SCOBEY           N/A     62  53  72 CALM      30.13R
$$

MTZ028>42-056>058-271500-
SOUTHCENTRAL AND SOUTHEAST MONTANA

CITY           SKY/WX    TMP DP  RH WIND       PRES   REMARKS
BAKER          CLOUDY    63  59  87 NE12      30.14S
BILLINGS       MOSUNNY   65  57  75 NW8       30.15R
LIVINGSTON     SUNNY     58  44  60 NW7       30.20R
MILES CITY     LGT RAIN  65  61  87 E7        30.08R
EKALAKA          N/A     64  59  84 E9        30.09S
FORSYTH          N/A     64  63  94 CALM      30.08F
LAUREL           N/A     66  55  67 NW1       30.13R
ROUNDUP          N/A     64  56  75 CALM      30.06S
$$

REGIONAL REPORTS...DAKOTAS

CITY           SKY/WX    TMP DP  RH WIND       PRES   REMARKS
WILLISTON      MOSUNNY   66  55  67 N6        30.13R
MINOT          PTSUNNY   68  60  75 NE6       30.12R
DICKINSON      PTSUNNY   61  59  93 N3        30.13R
BEACH          PTSUNNY   64  63  94 E7        30.17R
CROSBY         PTSUNNY   59  59 100 E3        30.16S
WATFORD CITY     N/A    N/A N/A N/A MISG        N/A
BISMARCK       SUNNY     68  63  84 E5        30.11R
GRAND FORKS    MOSUNNY   66  59  78 N12       30.05F
FARGO          CLOUDY    68  60  75 N15       30.01F
BUFFALO SD       N/A     63  61  93 NE14      30.06F
RAPID CITY     PTSUNNY   67  62  84 SE6       30.12F
$$

REGIONAL REPORTS...WYOMING/IDAHO/WASHINGTON

CITY           SKY/WX    TMP DP  RH WIND       PRES   REMARKS
GILLETTE       CLOUDY    67  53  61 CALM      30.16R
SHERIDAN       SUNNY     70  52  52 N3        30.14S
BUFFALO WY     SUNNY     69  51  52 CALM      30.20S
CODY           SUNNY     66  45  45 SW6       30.21F
YELLOWSTONE LA   N/A     49  40  71 CALM      30.41R
IDAHO FALLS    SUNNY     56  45  66 N9        30.18R
SALMON         SUNNY     52  45  76 CALM      30.19S
BOISE          SUNNY     72  41  32 S9        30.05R
SPOKANE        MOSUNNY   66  53  63 NE8       30.07R
$$

REGIONAL REPORTS...ALBERTA

CITY           SKY/WX    TMP DP  RH WIND       PRES   REMARKS
EDMONTON       SUNNY     66  61  82 SW2       30.11S
CALGARY        PTSUNNY   63  54  72 CALM      30.19R
LETHBRIDGE     PTSUNNY   61  57  88 W3        30.16R
MEDICINE HAT   MOSUNNY   63  63 100 SE3       30.14R
WATERTON GATE    N/A     57  52  82 SW7         N/A
CARDSTON         N/A     55  52  88 SE5         N/A
MILK RIVER       N/A     59  55  88 NW6         N/A
$$

REGIONAL REPORTS...SASKATCHEWAN

CITY           SKY/WX    TMP DP  RH WIND       PRES   REMARKS
SWIFT CURRENT  SUNNY     61  54  77 E10       30.16S
REGINA         PTSUNNY   64  55  72 SE9       30.17S
SASKATOON      PTSUNNY   64  54  68 S2        30.19S
CYPRESS HILLS    N/A     55  54  94 SE1         N/A
VAL MARIE        N/A     61  59  94 E3          N/A
ROCKGLEN         N/A     61  55  82 E2          N/A
ASSINIBOIA       N/A     61  59  94 S6          N/A
$$




USA.gov is the U.S. government's official web portal to all federal, state and local government web resources and services.